Location: Christchurch
(43.5330°S, 172.6330°E)
Time: 12:09:34
(UTC+13:00)

Meteor 2-10 Rocket - Pass Details

Date: 24 January 2019
Orbit: 733 x 885 km, 81.2° (Epoch: 19 February)

Event Time Altitude Azimuth Distance (km) Brightness Sun altitude
Rises 21:33:45 0° 349° (N) 3,177 6.5 -5.5°
Reaches altitude 10° 21:36:02 10° 348° (NNW) 2,275 5.7 -5.8°
Maximum altitude 21:41:09 82° 260° (W) 791 3.7 -6.6°
Drops below altitude 10° 21:46:32 10° 171° (S) 2,391 6.4 -7.4°
Sets 21:49:00 0° 170° (S) 3,352 7.2 -7.7°
